Wind_Speed
32 31 29 28 27 24 23 21 19 17 17 15 14 15 15 11 9 10 11 9 7 6 6 7 8 12 21 28 30 31 31 31 29 31 29 27 25 26 25 23 22 27 29 23 22
35 33 32 30 29 28 27 24 22 21 21 21 18 19 17 15 14 12 13 13 14 11 9 9 11 13 12 18 28 29 30 30 29 28 30 31 29 28 20 19 21 20 20 24 24
36 35 34 33 32 30 29 27 27 25 24 25 23 25 23 19 17 19 19 16 17 16 16 10 10 16 15 15 15 27 30 31 30 32 31 33 32 25 21 22 20 21 24 30 37
38 38 37 35 33 32 31 31 31 29 28 30 28 28 28 26 23 23 24 21 21 20 19 18 12 15 15 17 14 15 29 30 33 34 32 31 28 23 22 22 25 34 40 37 24
38 37 36 36 36 36 37 38 38 36 35 34 33 32 32 31 29 25 24 25 23 23 22 20 20 18 16 16 16 12 17 29 34 34 37 34 30 29 32 37 43 45 35 19 16
43 43 43 43 43 42 44 46 45 43 43 41 38 36 36 34 32 30 27 28 28 28 28 23 23 26 21 18 17 17 13 12 26 33 37 42 41 41 45 47 46 33 18 10 11
50 50 50 51 50 48 49 51 51 49 48 46 44 40 39 37 36 34 29 28 30 31 29 27 30 28 27 25 22 20 18 14 12 11 19 31 35 36 37 38 27 15 8 8 14
56 56 55 55 55 53 53 53 55 54 52 49 45 42 40 42 36 35 32 33 33 33 32 32 34 30 31 31 27 25 21 20 14 9 7 8 9 15 18 19 9 4 8 11 17
58 59 57 58 57 57 54 52 52 51 49 47 45 43 40 40 38 38 35 34 35 37 38 37 40 39 36 36 34 29 23 22 19 16 12 8 10 8 8 4 5 8 11 12 12
62 61 60 59 59 59 56 54 54 57 54 52 50 48 46 47 43 42 40 38 38 38 40 42 42 44 44 44 38 34 26 24 22 20 14 9 8 4 6 5 10 14 15 15 16
66 67 65 63 63 64 61 60 61 60 59 57 57 53 53 49 45 44 44 42 41 44 43 42 44 49 51 49 38 36 30 29 26 22 17 12 11 10 3 6 8 15 16 13 16
66 67 67 67 67 65 66 65 65 59 63 61 57 57 52 49 49 47 49 48 46 43 44 42 41 47 49 50 41 41 36 35 29 23 20 13 11 10 6 3 6 10 17 17 17
72 73 73 74 72 68 68 70 67 64 64 67 65 63 60 55 53 53 50 50 45 40 44 40 39 42 45 51 49 46 43 39 32 28 22 15 13 11 14 6 5 7 14 17 16
80 77 77 80 80 76 74 73 72 68 67 67 68 65 64 56 54 54 54 47 43 44 43 42 41 41 40 44 52 52 50 43 35 32 26 18 15 13 12 10 7 7 13 16 18
90 87 86 85 85 84 81 78 78 77 75 72 68 67 65 63 56 57 55 49 47 48 43 43 37 36 37 39 43 54 51 44 37 34 27 26 23 20 17 15 8 7 12 17 21
87 87 88 87 89 90 89 85 81 82 77 77 73 69 69 67 62 61 57 54 53 48 44 41 39 28 33 33 39 47 53 49 41 37 30 37 32 27 24 21 14 15 15 18 20
84 82 84 84 88 90 91 90 89 85 81 81 77 73 71 71 67 65 61 58 54 52 46 43 39 37 38 34 33 40 49 52 46 41 45 46 34 35 25 25 19 18 19 18 18
89 87 88 88 89 89 90 91 90 87 87 83 81 78 76 75 75 71 67 62 62 56 54 52 49 44 40 38 38 35 38 44 52 51 49 40 39 39 30 25 24 20 21 21 21
96 97 93 92 89 88 92 93 93 90 86 87 86 84 81 78 80 81 74 69 71 67 59 57 49 47 43 44 39 33 25 43 49 54 46 42 51 39 33 30 26 26 23 26 24
105 104 101 100 98 95 94 94 96 93 91 89 91 88 86 84 82 85 82 75 74 72 67 60 57 55 54 48 39 35 35 30 29 46 54 52 53 49 41 36 33 28 29 28 27
109 106 106 103 102 99 99 98 98 95 92 90 92 92 91 90 88 87 87 83 77 76 71 67 62 59 58 47 42 38 32 28 29 31 42 55 58 54 46 42 38 35 32 31 28
102 99 98 96 99 103 105 103 97 97 95 92 90 92 93 94 95 91 89 89 85 80 76 72 68 63 61 57 53 48 41 35 32 32 37 45 57 58 49 46 42 39 36 33 32
82 77 74 76 80 90 100 106 105 101 95 94 92 91 92 96 99 97 93 92 91 87 83 78 73 69 67 62 57 49 45 38 39 38 31 30 33 42 53 50 47 45 43 39 36
65 63 60 60 62 68 79 94 104 107 102 97 93 92 93 94 100 100 98 95 95 92 88 83 79 74 70 67 61 54 48 45 42 41 35 28 32 30 32 55 54 51 50 48 45
55 54 52 52 55 56 63 73 88 101 105 105 99 95 94 95 98 101 101 99 98 97 93 89 84 79 74 72 66 58 54 49 45 45 37 39 34 34 32 41 55 55 55 53 50
46 43 44 43 46 48 53 60 71 87 100 106 107 98 97 96 97 100 102 104 101 99 99 93 89 83 76 74 73 64 59 54 49 47 44 43 39 40 38 29 37 40 47 54 56
41 38 34 36 38 42 47 52 60 73 88 99 105 105 100 95 96 97 100 104 104 101 99 98 93 88 81 78 75 69 59 58 54 53 49 44 47 50 47 36 34 36 36 39 48
Wind_Direction
269 272 272 273 275 273 271 272 267 271 274 282 296 306 316 312 306 309 316 321 307 287 271 269 268 268 249 245 242 246 251 257 253 259 256 249 247 250 249 281 287 293 291 297 315
266 267 269 270 271 271 272 269 267 268 272 275 283 290 296 295 293 287 290 292 297 293 288 278 275 278 277 261 247 238 246 248 247 243 247 246 249 257 271 282 284 283 291 295 301
266 267 269 269 270 268 267 268 269 268 268 272 279 284 286 281 275 283 278 274 279 282 287 281 274 279 280 282 277 242 235 243 247 244 243 248 253 250 247 267 275 283 285 292 301
266 267 268 267 267 267 266 268 269 269 269 270 272 276 278 279 270 279 279 274 270 272 273 279 278 275 279 284 288 255 237 236 240 231 247 250 253 252 260 263 269 284 292 295 294
264 265 267 267 266 267 269 269 269 267 266 268 266 268 273 273 271 271 269 271 268 270 269 267 278 278 278 279 281 281 255 240 237 244 242 245 250 253 259 268 278 285 295 290 261
265 266 266 266 266 267 267 268 269 269 268 270 268 267 266 266 267 266 264 266 268 267 266 266 270 273 273 274 273 273 269 260 245 242 246 251 254 257 263 269 278 285 288 255 223
267 268 268 268 267 267 269 272 272 271 271 270 268 266 262 260 263 263 265 263 265 267 265 264 262 262 270 268 269 272 270 265 263 260 254 251 256 260 265 269 268 268 265 243 231
267 266 266 267 268 268 269 271 272 272 271 269 266 261 261 264 257 259 261 262 262 264 267 261 260 255 260 263 263 265 267 265 260 263 248 230 253 266 268 267 257 228 241 233 230
268 266 267 267 267 268 269 270 271 270 270 268 267 264 260 259 258 261 261 260 264 267 266 263 257 255 253 256 256 256 260 264 267 267 269 284 305 294 290 271 227 229 224 223 225
269 269 266 266 266 267 265 264 267 272 268 268 268 266 266 265 264 265 262 259 264 264 267 266 261 254 252 251 249 254 250 254 256 257 265 278 276 310 341 277 212 220 227 222 220
270 270 268 265 265 265 264 263 264 267 266 265 266 265 265 266 264 265 263 262 261 270 272 262 254 248 246 248 243 250 243 246 248 253 253 252 262 269 345 309 239 223 224 227 224
267 267 267 264 262 262 264 260 262 262 265 265 265 265 263 264 267 263 266 266 266 270 267 262 262 253 249 247 240 241 240 239 241 243 246 245 262 247 257 223 272 239 234 231 217
268 266 267 266 263 260 260 259 257 259 260 263 263 264 263 265 265 265 264 267 266 267 263 265 263 254 245 240 237 234 233 235 233 235 239 234 243 243 248 228 239 222 210 196 197
268 266 265 264 262 259 257 256 257 255 255 260 260 261 262 258 260 259 264 259 262 255 256 259 258 258 251 240 237 233 231 231 230 234 234 231 234 234 229 215 202 214 197 186 186
268 267 265 264 263 261 257 254 255 256 254 254 259 259 257 255 252 253 250 257 245 246 247 241 257 255 251 244 237 236 235 232 232 236 233 237 221 225 219 204 182 197 185 175 177
270 268 265 263 261 260 258 255 252 251 252 251 251 251 252 251 248 249 243 241 237 238 237 233 241 230 242 241 236 233 230 229 223 227 229 232 227 224 213 207 199 186 179 170 178
271 267 265 262 262 259 257 256 254 250 249 248 246 245 243 245 243 242 238 234 233 228 226 220 229 222 235 241 235 231 231 227 222 218 224 227 224 228 213 215 213 215 202 193 186
270 267 264 261 259 257 256 254 252 251 248 245 243 241 240 238 240 239 235 231 230 227 224 222 223 223 222 230 226 230 232 228 224 221 224 230 233 226 221 215 211 211 212 208 198
266 264 261 259 256 255 254 253 250 249 247 244 240 238 235 236 234 236 233 228 226 225 221 223 222 229 225 230 234 227 222 226 224 226 221 224 236 230 223 216 215 213 208 218 210
273 270 267 263 259 254 251 252 251 247 245 242 240 237 235 231 232 233 233 231 228 228 225 222 224 226 229 229 237 229 219 224 223 225 220 219 232 228 221 216 214 213 212 213 220
278 272 267 263 261 260 258 255 251 248 244 241 239 237 234 232 229 229 230 232 229 226 227 226 223 227 231 228 230 229 220 206 204 217 219 219 227 229 223 219 219 216 216 216 215
283 279 273 266 261 256 254 251 250 249 248 243 239 236 234 231 229 227 227 229 230 227 226 227 224 225 227 227 223 221 220 210 203 212 214 218 224 229 223 222 221 225 225 221 220
284 280 274 268 260 254 251 247 246 245 243 243 239 235 234 230 228 227 225 225 227 228 226 225 224 223 224 225 225 223 221 211 197 202 210 208 216 224 225 222 225 224 224 224 228
287 283 277 271 262 253 246 243 241 240 240 239 238 235 231 230 227 226 226 222 224 225 227 226 224 224 224 223 222 220 219 214 201 200 204 211 222 211 213 217 221 225 226 226 223
292 286 280 271 263 256 247 240 237 236 236 235 234 233 230 228 227 225 225 224 222 222 224 226 224 224 224 225 222 218 217 213 204 202 202 208 223 231 212 209 217 223 227 229 228
299 291 284 274 265 256 248 239 233 231 231 231 231 230 229 227 225 226 224 224 222 221 222 223 225 224 223 224 222 218 215 213 208 204 203 210 220 230 232 206 207 214 221 228 232
309 302 290 279 267 258 249 241 233 229 228 228 227 227 227 227 226 225 225 223 223 222 221 222 223 224 223 221 221 217 216 215 210 210 208 208 213 222 237 224 207 213 207 217 229
Height
10964 10964 10964 10964 10965 10965 10965 10966 10967 10968 10968 10970 10971 10972 10973 10974 10974 10973 10972 10972 10972 10971 10971 10971 10970 10969 10969 10969 10973 10974 10974 10975 10980 10980 10982 10983 10985 10986 10987 10989 10989 10989 10987 10986 10984
10957 10958 10958 10959 10960 10960 10960 10960 10961 10963 10964 10964 10967 10968 10970 10970 10970 10971 10970 10969 10969 10969 10969 10969 10968 10967 10966 10965 10967 10970 10968 10970 10975 10976 10977 10979 10980 10982 10984 10985 10985 10984 10983 10983 10981
10951 10951 10951 10952 10953 10954 10954 10954 10955 10957 10959 10959 10962 10963 10965 10966 10966 10966 10966 10967 10966 10965 10965 10966 10966 10964 10964 10963 10962 10964 10965 10965 10969 10971 10973 10974 10977 10980 10981 10981 10980 10980 10980 10979 10978
10944 10944 10944 10945 10945 10946 10947 10947 10947 10950 10953 10953 10956 10958 10958 10959 10961 10961 10961 10962 10962 10962 10961 10961 10963 10961 10961 10960 10960 10959 10960 10963 10964 10967 10967 10969 10973 10974 10975 10976 10976 10976 10975 10974 10972
10936 10936 10937 10937 10938 10939 10939 10938 10939 10942 10944 10946 10949 10952 10951 10952 10953 10956 10955 10955 10957 10957 10957 10958 10959 10959 10958 10957 10957 10957 10956 10958 10960 10964 10965 10965 10969 10971 10970 10970 10970 10971 10969 10968 10968
10927 10928 10928 10928 10929 10931 10930 10928 10930 10932 10934 10937 10939 10943 10944 10944 10945 10947 10949 10949 10950 10951 10952 10954 10955 10953 10954 10954 10952 10953 10955 10956 10957 10960 10961 10961 10963 10965 10964 10964 10965 10963 10964 10964 10966
10916 10917 10917 10916 10918 10920 10920 10918 10918 10921 10922 10925 10929 10933 10934 10935 10936 10939 10941 10941 10942 10942 10945 10948 10948 10949 10949 10949 10948 10948 10951 10952 10954 10954 10955 10957 10957 10959 10957 10957 10958 10957 10960 10961 10963
10903 10905 10905 10905 10906 10909 10909 10907 10906 10908 10910 10912 10916 10922 10925 10925 10927 10929 10933 10932 10933 10934 10937 10941 10940 10943 10943 10944 10944 10943 10944 10947 10950 10951 10953 10954 10954 10953 10951 10951 10951 10953 10956 10958 10961
10890 10891 10892 10892 10893 10895 10897 10896 10893 10895 10897 10899 10902 10908 10913 10913 10917 10919 10921 10923 10923 10925 10928 10930 10931 10934 10937 10937 10938 10939 10940 10942 10945 10947 10949 10949 10948 10948 10947 10946 10948 10951 10953 10955 10958
10876 10875 10879 10878 10879 10879 10882 10884 10882 10881 10883 10885 10888 10893 10900 10901 10905 10907 10909 10913 10914 10914 10916 10920 10921 10924 10926 10927 10933 10936 10937 10938 10941 10943 10945 10946 10945 10946 10945 10944 10947 10949 10951 10953 10955
10860 10858 10860 10864 10865 10862 10867 10868 10870 10868 10868 10871 10872 10879 10883 10886 10893 10894 10896 10901 10903 10903 10904 10905 10908 10907 10912 10917 10928 10932 10933 10933 10936 10938 10942 10944 10943 10944 10943 10943 10945 10947 10948 10951 10953
10843 10841 10840 10844 10846 10848 10846 10850 10853 10857 10852 10855 10858 10859 10868 10875 10876 10881 10883 10885 10889 10892 10889 10892 10895 10897 10904 10909 10920 10924 10925 10924 10930 10934 10936 10939 10940 10941 10941 10942 10942 10943 10944 10947 10950
10823 10822 10821 10819 10823 10830 10828 10830 10834 10840 10841 10835 10840 10844 10854 10860 10861 10861 10870 10870 10876 10879 10876 10879 10884 10884 10889 10896 10905 10910 10912 10916 10925 10929 10931 10934 10936 10937 10939 10938 10939 10940 10941 10944 10947
10797 10799 10800 10794 10796 10803 10808 10811 10812 10820 10823 10817 10824 10830 10833 10846 10846 10848 10853 10860 10864 10865 10867 10869 10872 10873 10878 10884 10891 10899 10900 10910 10918 10922 10927 10930 10932 10933 10935 10936 10936 10937 10938 10941 10945
10767 10773 10771 10771 10768 10771 10781 10789 10791 10794 10801 10806 10805 10813 10815 10823 10832 10833 10836 10847 10851 10851 10859 10856 10864 10866 10867 10872 10882 10885 10896 10903 10912 10916 10922 10923 10925 10928 10930 10934 10935 10936 10938 10939 10943
10736 10741 10741 10741 10741 10741 10747 10758 10767 10767 10779 10785 10791 10789 10795 10802 10812 10816 10822 10829 10834 10841 10848 10849 10854 10860 10856 10864 10868 10876 10885 10894 10904 10910 10918 10913 10917 10921 10925 10931 10934 10935 10938 10939 10944
10706 10709 10709 10710 10710 10711 10715 10723 10731 10743 10754 10758 10769 10774 10775 10781 10790 10798 10808 10814 10822 10829 10837 10839 10843 10848 10851 10857 10861 10866 10871 10884 10895 10903 10895 10901 10914 10914 10923 10926 10931 10935 10937 10939 10942
10670 10674 10674 10677 10679 10679 10682 10689 10698 10712 10724 10735 10743 10750 10755 10761 10769 10778 10789 10800 10804 10812 10820 10825 10830 10839 10842 10845 10849 10858 10865 10875 10881 10886 10889 10903 10905 10909 10916 10922 10926 10930 10934 10937 10938
10634 10631 10637 10639 10644 10647 10649 10653 10663 10677 10692 10705 10714 10722 10730 10741 10747 10752 10768 10780 10783 10793 10805 10811 10822 10826 10834 10835 10845 10852 10860 10854 10869 10877 10889 10895 10885 10903 10911 10916 10920 10924 10928 10932 10934
10600 10598 10603 10604 10608 10613 10617 10620 10626 10645 10658 10670 10680 10695 10706 10716 10725 10732 10743 10759 10770 10779 10789 10800 10809 10813 10816 10827 10838 10846 10848 10856 10863 10866 10874 10880 10878 10888 10900 10907 10912 10917 10920 10925 10931
10554 10556 10556 10563 10569 10577 10582 10589 10595 10608 10623 10637 10648 10663 10678 10688 10698 10709 10722 10735 10750 10761 10772 10784 10795 10800 10804 10822 10828 10835 10844 10850 10853 10857 10862 10870 10871 10876 10890 10898 10904 10908 10913 10919 10924
10499 10499 10503 10512 10521 10528 10540 10550 10562 10572 10590 10604 10619 10632 10647 10660 10671 10684 10699 10711 10725 10741 10755 10765 10778 10786 10795 10803 10811 10820 10831 10841 10848 10851 10851 10857 10861 10868 10881 10891 10897 10902 10908 10913 10917
10458 10457 10459 10462 10468 10478 10488 10505 10522 10536 10554 10571 10587 10603 10617 10630 10643 10657 10673 10689 10702 10717 10730 10745 10760 10767 10776 10789 10801 10815 10822 10832 10838 10842 10850 10854 10855 10860 10873 10885 10890 10896 10899 10905 10911
10430 10427 10427 10428 10430 10435 10443 10459 10476 10496 10516 10537 10554 10571 10586 10599 10613 10630 10647 10664 10678 10693 10708 10725 10739 10752 10765 10776 10785 10801 10811 10821 10830 10837 10844 10849 10847 10853 10858 10870 10878 10883 10888 10893 10898
10407 10402 10402 10402 10401 10406 10411 10423 10437 10455 10477 10499 10520 10539 10556 10573 10586 10601 10621 10637 10653 10670 10686 10701 10719 10734 10748 10758 10773 10787 10798 10810 10821 10831 10840 10840 10842 10844 10851 10858 10866 10873 10878 10883 10889
10390 10385 10381 10379 10379 10381 10384 10394 10405 10418 10436 10458 10485 10507 10525 10543 10559 10575 10592 10610 10628 10647 10664 10682 10697 10715 10731 10742 10756 10771 10785 10799 10811 10821 10830 10832 10838 10835 10840 10850 10856 10860 10867 10872 10877
10372 10366 10365 10361 10359 10361 10364 10371 10381 10392 10407 10424 10450 10474 10496 10519 10536 10551 10568 10586 10605 10625 10644 10662 10678 10695 10713 10726 10739 10757 10776 10786 10798 10806 10815 10825 10829 10827 10829 10842 10846 10849 10856 10860 10864